Weather History for KBML - June, 2013

Change the Weather History Date:

Wednesday, June 12, 2013

  Actual Average Record
Temperature  
Mean Temperature 56 °F -  
Max Temperature 61 °F 69 °F 87 °F (1999)
Min Temperature 53 °F 42 °F 28 °F (2004)
Degree Days  
Heating Degree Days 8    
Growing Degree Days 6 (Base 50)    
Moisture  
Dew Point 52 °F    
Average Humidity 87    
Maximum Humidity 96    
Minimum Humidity 72    
Precipitation  
Precipitation 0.09 in - - ()
Sea Level Pressure  
Sea Level Pressure 29.70 in    
Wind  
Wind Speed 5 mph (North)    
Max Wind Speed 14 mph    
Max Gust Speed 21 mph    
Visibility 8 miles    
Events Rain    
Averages and records for this station are not official NWS values.
T = Trace of Precipitation, MM = Missing Value Source: NWS Daily Summary

Daily Weather History Graph

Daily Weather History Graph

Search for Another Location

Airport or City:

Trip Planner

Search our weather history database for the weather conditions in past years. The results will help you decide how hot, cold, wet, or windy it might be!

Date:

Astronomy

Jun. 12, 2013 Rise Set
Actual Time 4:59 AM EDT 8:30 PM EDT
Civil Twilight 4:22 AM EDT 9:07 PM EDT
Nautical Twilight 3:33 AM EDT 9:55 PM EDT
Astronomical Twilight 2:31 AM EDT 10:58 PM EDT
Moon 8:42 AM EDT (6/12) 10:56 PM EDT (6/12)
Length of Visible Light 16h 44m
Length of Day
15h 31m
Waxing Crescent, 14% of the Moon is Illuminated
Jun 12
Waxing Crescent
Jun 16
First Quarter
Jun 23
Full
Jun 30
Last Quarter
Jul 8
New

Hourly Weather History & Observations

Time (EDT) Temp. Dew Point Humidity Pressure Visibility Wind Dir Wind Speed Gust Speed Precip Events Conditions
12:52 AM 53.1 °F 51.1 °F 93% 29.61 in 10.0 mi NW 3.5 mph - 0.02 in Rain Light Rain
1:09 AM 53.6 °F 51.8 °F 94% 29.60 in 10.0 mi Calm Calm - 0.00 in Rain Light Rain
1:52 AM 53.1 °F 51.1 °F 93% 29.60 in 10.0 mi North 3.5 mph - 0.00 in Rain Light Rain
2:52 AM 53.1 °F 52.0 °F 96% 29.59 in 10.0 mi North 3.5 mph - 0.00 in   Overcast
3:52 AM 53.1 °F 51.1 °F 93% 29.59 in 10.0 mi Calm Calm - 0.00 in Rain Light Rain
4:52 AM 53.1 °F 51.1 °F 93% 29.60 in 10.0 mi North 3.5 mph - 0.01 in Rain Light Rain
5:52 AM 53.1 °F 51.1 °F 93% 29.60 in 10.0 mi NNW 4.6 mph - 0.00 in   Overcast
6:52 AM 54.0 °F 52.0 °F 93% 29.62 in 10.0 mi North 3.5 mph - N/A   Overcast
7:52 AM 55.9 °F 52.0 °F 87% 29.62 in 10.0 mi NNW 4.6 mph - 0.00 in   Overcast
8:52 AM 57.0 °F 52.0 °F 83% 29.63 in 10.0 mi North 6.9 mph - 0.00 in Rain Light Rain
9:52 AM 57.9 °F 52.0 °F 81% 29.65 in 5.0 mi North 10.4 mph 20.7 mph 0.01 in Rain Light Rain
10:33 AM 57.2 °F 53.6 °F 88% 29.66 in 2.5 mi North 12.7 mph 20.7 mph 0.01 in Rain Light Rain
10:48 AM 57.2 °F 53.6 °F 88% 29.66 in 3.0 mi North 10.4 mph 19.6 mph 0.02 in Rain Light Rain
10:52 AM 57.0 °F 53.1 °F 87% 29.67 in 3.0 mi North 10.4 mph 18.4 mph 0.02 in Rain Light Rain
11:13 AM 55.4 °F 53.6 °F 94% 29.67 in 2.5 mi North 10.4 mph - 0.01 in Rain Light Rain
11:24 AM 57.2 °F 53.6 °F 88% 29.67 in 3.0 mi NNW 10.4 mph 16.1 mph 0.02 in Rain Light Rain
11:52 AM 57.9 °F 53.1 °F 84% 29.69 in 10.0 mi North 6.9 mph - 0.02 in   Overcast
12:00 PM 57.2 °F 53.6 °F 88% 29.69 in 10.0 mi North 12.7 mph 18.4 mph N/A   Overcast
12:52 PM 57.9 °F 52.0 °F 81% 29.72 in 9.0 mi North 10.4 mph - 0.00 in Rain Light Rain
1:03 PM 57.2 °F 51.8 °F 82% 29.72 in 8.0 mi North 10.4 mph - 0.00 in Rain Light Rain
1:12 PM 57.2 °F 51.8 °F 82% 29.72 in 10.0 mi North 9.2 mph - 0.00 in Rain Light Rain
1:52 PM 57.9 °F 52.0 °F 81% 29.73 in 8.0 mi NNW 13.8 mph 19.6 mph 0.00 in Rain Light Rain
2:52 PM 59.0 °F 53.1 °F 81% 29.75 in 10.0 mi North 11.5 mph - 0.00 in Rain Light Rain
3:52 PM 59.0 °F 53.1 °F 81% 29.75 in 10.0 mi North 6.9 mph - 0.01 in Rain Light Rain
4:52 PM 60.1 °F 52.0 °F 75% 29.77 in 10.0 mi NNW 9.2 mph - 0.00 in   Overcast
5:52 PM 60.1 °F 51.1 °F 72% 29.78 in 10.0 mi NNW 5.8 mph - N/A   Overcast
6:52 PM 59.0 °F 53.1 °F 81% 29.80 in 10.0 mi North 4.6 mph - 0.00 in Rain Light Rain
7:52 PM 59.0 °F 53.1 °F 81% 29.80 in 10.0 mi North 3.5 mph - 0.00 in   Overcast
8:52 PM 55.9 °F 54.0 °F 93% 29.83 in 10.0 mi Calm Calm - N/A   Overcast
9:52 PM 55.0 °F 53.1 °F 93% 29.84 in 10.0 mi Calm Calm - N/A   Overcast
10:52 PM 54.0 °F 52.0 °F 93% 29.84 in 9.0 mi Calm Calm - N/A   Overcast
11:52 PM 53.1 °F 52.0 °F 96% 29.82 in 8.0 mi East 4.6 mph - N/A   Overcast